Date,TemperatureHighF,TemperatureAvgF,TemperatureLowF,DewpointHighF,DewpointAvgF,DewpointLowF,HumidityHigh,HumidityAvg,HumidityLow,PressureMaxIn,PressureMinIn,WindSpeedMaxMPH,WindSpeedAvgMPH,GustSpeedMaxMPH,PrecipitationSumIn
2013-3-1,33,30,27,31,25,20,93,79,70,0.00,40.00,11,7,16,0.55
2013-3-2,29,27,26,23,21,19,85,77,69,0.00,40.00,11,7,17,2.20
2013-3-3,31,26,23,19,17,14,84,68,50,0.00,40.00,9,5,15,0.00
2013-3-4,39,28,19,26,19,15,87,68,42,0.00,40.00,6,2,9,0.00
2013-3-5,39,31,28,30,26,21,97,80,56,0.00,40.00,16,7,26,10.06
2013-3-6,40,34,30,32,29,26,97,81,67,0.00,40.00,16,9,25,1.69
2013-3-7,40,36,32,33,29,26,87,77,62,0.00,40.00,11,5,15,0.00
2013-3-8,46,36,26,29,25,21,82,65,47,0.00,40.00,7,3,13,0.00
2013-3-9,53,41,30,37,32,26,86,69,49,0.00,40.00,9,3,16,0.00
2013-3-10,62,56,50,42,38,34,55,50,42,0.00,40.00,12,8,22,1.10
2013-3-11,61,51,38,51,44,32,90,77,43,0.00,40.00,21,13,34,10.02
2013-3-12,38,35,32,33,29,25,89,79,69,0.00,40.00,15,10,24,0.00
2013-3-13,34,30,27,29,23,18,90,74,61,0.00,40.00,16,10,27,0.00
2013-3-14,42,32,24,25,21,18,79,64,46,0.00,40.00,12,7,21,0.00
2013-3-15,47,39,32,41,32,25,93,78,64,0.00,40.00,12,6,18,9.59
2013-3-16,42,35,31,41,34,29,97,94,90,0.00,40.00,15,5,22,0.00
2013-3-17,33,30,28,30,23,19,91,73,65,0.00,40.00,16,6,21,0.00
2013-3-18,43,34,28,42,31,22,97,89,74,0.00,40.00,17,8,26,7.28
2013-3-19,36,31,25,34,20,15,89,64,47,0.00,40.00,24,15,35,0.00
2013-3-20,33,28,20,21,15,9,70,60,43,0.00,40.00,14,8,23,0.00
2013-3-21,32,25,17,20,16,10,85,69,57,0.00,40.00,14,7,21,0.00
2013-3-22,44,33,25,22,19,16,72,58,38,0.00,40.00,11,6,19,0.00
2013-3-23,45,33,24,27,24,20,89,70,44,0.00,40.00,8,3,14,0.00
2013-3-24,36,32,27,28,24,21,88,73,56,0.00,40.00,17,8,28,0.00
2013-3-25,34,33,31,33,-16,-100,100,61,69,0.00,40.00,16,9,24,22.41
2013-3-26,42,36,33,34,23,-100,98,76,58,0.00,40.00,9,5,14,0.55
2013-3-27,44,38,33,31,29,23,90,70,45,0.00,40.00,13,8,22,0.00
2013-3-28,52,39,28,33,26,22,78,61,38,0.00,40.00,11,6,17,0.00
2013-3-29,53,41,29,30,26,22,91,58,30,0.00,40.00,11,4,17,0.00
2013-3-30,57,44,30,35,27,22,83,54,30,0.00,40.00,11,4,17,0.00
2013-3-31,60,50,43,45,36,-100,86,62,38,0.00,40.00,15,7,24,1.69